PST,Max TemperatureF,Mean TemperatureF,Min TemperatureF,Max Dew PointF,MeanDew PointF,Min DewpointF,Max Humidity, Mean Humidity, Min Humidity, Max Sea Level PressureIn, Mean Sea Level PressureIn, Min Sea Level PressureIn, Max VisibilityMiles, Mean VisibilityMiles, Min VisibilityMiles, Max Wind SpeedMPH, Mean Wind SpeedMPH, Max Gust SpeedMPH,PrecipitationIn, CloudCover, Events, WindDirDegrees
2013-2-1,56,42,27,38,33,27,100,75,50,30.49,30.38,30.27,10,10,10,12,2,13,0.00,0,,339
2013-2-2,49,37,24,36,31,23,100,81,61,30.51,30.39,30.29,10,6,0,9,4,12,0.00,1,Fog,119
2013-2-3,37,32,26,35,31,25,100,96,92,30.30,30.25,30.18,9,3,0,9,3,10,0.00,7,Fog,91
2013-2-4,50,42,33,39,35,32,100,83,66,30.20,30.12,29.97,10,5,0,9,2,10,T,4,Fog,334
2013-2-5,54,42,30,39,35,29,100,77,54,29.99,29.92,29.88,10,8,3,20,6,24,T,3,,244
2013-2-6,55,46,36,36,34,32,85,65,45,30.10,30.03,29.91,10,10,10,22,11,26,0.00,0,,213
2013-2-7,48,37,25,34,32,24,92,74,56,30.10,29.98,29.89,10,10,10,13,4,16,0.00,4,,215
2013-2-8,49,37,24,32,27,22,92,69,45,30.22,30.17,30.11,10,10,10,9,2,12,0.00,2,,29
2013-2-9,49,36,22,31,26,20,96,71,46,30.25,30.17,30.12,10,10,10,9,2,12,0.00,0,,245
2013-2-10,51,37,23,31,26,21,92,67,42,30.34,30.28,30.25,10,10,8,7,3,10,0.00,0,,52
2013-2-11,48,35,21,33,27,20,96,75,53,30.29,30.25,30.23,10,10,9,9,2,10,0.00,1,,330
2013-2-12,56,41,26,40,34,24,100,75,50,30.36,30.30,30.25,10,10,7,23,5,29,0.00,5,,230
2013-2-13,56,44,32,39,36,28,76,63,50,30.43,30.30,30.22,10,10,10,30,13,37,0.00,1,,251
2013-2-14,54,39,24,36,31,24,100,73,46,30.56,30.49,30.44,10,10,10,12,2,14,0.00,2,,261
2013-2-15,57,41,25,39,31,24,100,74,47,30.58,30.45,30.28,10,10,10,8,3,10,0.00,0,,325
2013-2-16,59,42,24,40,30,23,100,69,38,30.27,30.13,30.01,10,10,8,29,4,35,0.00,1,,261
2013-2-17,53,38,22,30,26,21,96,66,35,30.18,30.14,30.11,10,10,10,18,8,22,0.00,0,,209
2013-2-18,46,35,24,31,27,23,92,71,49,30.13,29.96,29.81,10,10,10,8,2,12,0.00,3,,331
2013-2-19,49,40,30,31,29,27,92,69,45,29.96,29.83,29.77,10,10,10,10,2,16,0.00,6,,279
2013-2-20,51,36,21,30,27,20,100,71,42,30.06,30.01,29.97,10,9,6,14,3,17,0.00,1,,336
2013-2-21,50,36,21,34,28,20,96,71,46,30.07,30.05,30.03,10,10,10,29,8,35,T,3,,226
2013-2-22,50,44,38,37,33,27,73,63,53,30.04,29.90,29.76,10,10,10,32,16,44,0.01,5,Rain,221
2013-2-23,55,43,31,31,26,22,70,50,29,30.32,30.10,29.89,10,10,10,24,13,30,0.00,1,,245
2013-2-24,48,38,28,30,27,22,78,64,49,30.36,30.28,30.06,10,10,10,21,7,24,0.00,1,,195
2013-2-25,53,42,31,35,29,21,78,54,30,30.25,30.07,29.97,10,10,10,33,13,45,0.05,3,Rain,227
2013-2-26,51,40,29,29,27,25,85,62,38,30.38,30.30,30.23,10,10,10,14,8,18,0.00,1,,178
2013-2-27,58,43,27,36,31,25,92,65,38,30.33,30.27,30.23,10,10,10,14,3,18,T,3,,193
2013-2-28,54,48,41,47,43,36,100,81,61,30.36,30.31,30.26,10,10,8,22,4,30,0.06,7,Rain,150